This demonstration page uses our WeatherBlox Daily Observations layout. Learn more.

Left ArrowRight Arrow

Hourly Observations for July 3, 2022

Temp ( °F °C ) Dew Point ( °F °C ) Humidity (%) Winds ( mph kmh ) Pressure ( in mb ) Visibility ( mi km ) Precip ( " mm )
12:52 am 00:52 Clear 71 21.7 64 17.8 79 79 SSE 8 13 30.01 1016 10 16 0.00 0.00
1:52 am 01:52 Clear 69 20.6 64 17.8 84 84 SSE 7 11 30.02 1017 10 16 0.00 0.00
2:52 am 02:52 Clear 68 20 64 17.8 87 87 SE 8 13 30.02 1017 10 16 0.00 0.00
3:52 am 03:52 Clear 68 20 65 18.3 90 90 SSE 8 13 30.03 1017 10 16 0.00 0.00
4:52 am 04:52 Mostly Clear 67 19.4 64 17.8 91 91 ESE 3 6 30.03 1017 10 16 0.00 0.00
5:52 am 05:52 Mostly Clear 66 18.9 64 17.8 93 93 SE 6 9 30.04 1017 10 16 0.00 0.00
6:43 am 06:43 Mostly Cloudy 67 19.4 65 18.3 93 93 SE 9 15 30.03 1017 10 16 0.00 0.00
6:52 am 06:52 Mostly Cloudy 67 19.4 65 18.3 93 93 SE 10 17 30.02 1017 10 16 0.00 0.00
7:22 am 07:22 Cloudy 68 20 66 18.9 93 93 SSE 10 17 30.01 1016 10 16 0.00 0.00
7:52 am 07:52 Cloudy 69 20.6 66 18.9 90 90 SSE 10 17 30.03 1017 10 16 0.00 0.00
8:39 am 08:39 Cloudy 70 21.1 66 18.9 87 87 SSE 13 20 30.03 1017 10 16 0.00 0.00
8:52 am 08:52 Cloudy 70 21.1 66 18.9 87 87 SSE 9 15 30.04 1017 10 16 0.00 0.00
9:52 am 09:52 Cloudy 72 22.2 67 19.4 84 84 SSE 10 17 30.03 1017 10 16 0.00 0.00
10:52 am 10:52 Mostly Cloudy 75 23.9 69 20.6 82 82 S 10 17 30.02 1017 10 16 0.00 0.00
11:26 am 11:26 Mostly Cloudy 76 24.4 69 20.6 79 79 S 8 13 30.01 1016 10 16 0.00 0.00
11:52 am 11:52 Mostly Cloudy 77 25 69 20.6 77 77 SSW 9 15 30.02 1017 10 16 0.00 0.00
12:52 pm 12:52 Mostly Cloudy 78 25.6 69 20.6 74 74 SSE 9 15 30.01 1016 10 16 0.00 0.00
1:44 pm 13:44 Mostly Cloudy 82 27.8 70 21.1 67 67 SE 12 19 29.96 1015 10 16 0.00 0.00
1:52 pm 13:52 Mostly Cloudy 81 27.2 70 21.1 69 69 S 7 11 30.00 1016 10 16 0.00 0.00
2:52 pm 14:52 Mostly Cloudy 85 29.4 70 21.1 61 61 SSE 12 19 29.98 1015 10 16 0.00 0.00
3:52 pm 15:52 Mostly Cloudy 87 30.6 70 21.1 57 57 S 12 19 29.96 1015 10 16 0.00 0.00
4:52 pm 16:52 Mostly Cloudy 87 30.6 69 20.6 55 55 SE 14 22 29.94 1014 10 16 0.00 0.00
5:00 pm 17:00 Mostly Cloudy 88 31.1 70 21.1 55 55 SSE 13 20 29.90 1013 10 16 0.00 0.00
5:52 pm 17:52 Mostly Cloudy 87 30.6 70 21.1 57 57 SSE 16 26 29.92 1013 10 16 0.00 0.00
6:52 pm 18:52 Mostly Cloudy 87 30.6 70 21.1 57 57 S 14 22 29.92 1013 10 16 0.00 0.00
7:52 pm 19:52 Mostly Cloudy 85 29.4 71 21.7 63 63 S 16 26 29.92 1013 10 16 0.00 0.00
8:52 pm 20:52 Mostly Cloudy 83 28.3 72 22.2 70 70 SSE 13 20 29.92 1013 10 16 0.00 0.00
9:52 pm 21:52 Partly Cloudy 81 27.2 72 22.2 74 74 SSE 12 19 29.93 1014 10 16 0.00 0.00
10:52 pm 22:52 Partly Cloudy 80 26.7 73 22.8 79 79 SSE 10 17 29.95 1014 10 16 0.00 0.00
11:52 pm 23:52 Mostly Cloudy 80 26.7 73 22.8 79 79 SSE 16 26 29.89 1012 10 16 0.00 0.00

Powered by AerisWeather